DW4360 Weather Reports


time (UTC)temp
F
wind
direction
speed
knots
gust
knots
rain 1hr
in
rain 24hr
in
rain mn
in
humidity
%
barometer
mb
20240614111726 49 319 0.0 0.0 0.00 0.00 0.00 82 1020.8
20240614110725 49 319 0.0 0.0 0.00 0.00 0.00 81 1020.8
20240614105724 49 319 0.0 0.0 0.00 0.00 0.00 81 1020.7
20240614104723 50 319 0.0 0.0 0.00 0.00 0.00 80 1020.9
20240614103723 50 319 0.0 0.0 0.00 0.00 0.00 80 1020.9
20240614102721 50 319 0.0 0.0 0.00 0.00 0.00 80 1020.8
20240614101720 50 319 0.0 0.0 0.00 0.00 0.00 79 1020.8
20240614100719 50 319 0.0 0.0 0.00 0.00 0.00 79 1020.7
20240614095718 50 319 0.0 0.0 0.00 0.00 0.00 78 1020.7
20240614094717 51 319 0.0 0.0 0.00 0.00 0.00 78 1020.7
20240614093716 51 319 0.0 0.0 0.00 0.00 0.00 76 1020.6
20240614092715 51 319 0.0 0.0 0.00 0.00 0.00 75 1020.5
20240614091714 52 319 0.0 0.0 0.00 0.00 0.00 74 1020.5
20240614090713 52 319 0.0 0.0 0.00 0.00 0.00 73 1020.5
20240614085712 53 319 0.0 0.0 0.00 0.00 0.00 71 1020.5
20240614083710 54 319 0.0 0.0 0.00 0.00 0.00 69 1020.3
20240614081708 54 319 0.0 0.0 0.00 0.00 0.00 67 1020.2
20240614080707 54 319 0.0 0.0 0.00 0.00 0.00 66 1020.2
20240614074705 55 329 0.0 0.0 0.00 0.00 0.00 63 1020.2
20240614073704 55 329 0.0 0.0 0.00 0.00 0.00 62 1020.1
20240614072703 56 318 3.5 0.0 0.00 0.00 0.00 61 1020.1
20240614071702 56 317 4.3 0.0 0.00 0.00 0.00 60 1020.0
20240614070701 56 325 4.3 0.0 0.00 0.00 0.00 58 1019.9
20240614065700 57 323 0.0 0.0 0.00 0.00 0.00 56 1019.8
20240614064659 58 317 2.6 0.0 0.00 0.00 0.00 54 1019.6
20240614063658 58 317 0.0 0.0 0.00 0.00 0.00 52 1019.3
20240614062657 58 315 0.0 0.0 0.00 0.00 0.00 50 1019.2
20240614060655 59 315 0.0 0.0 0.00 0.00 0.00 47 1019.0
20240614053652 61 306 0.0 0.0 0.00 0.00 0.00 45 1018.4
20240614052651 61 315 0.0 0.0 0.00 0.00 0.00 45 1018.4
20240614051650 61 315 0.9 0.0 0.00 0.00 0.00 43 1018.2
20240614050649 61 320 0.0 0.0 0.00 0.00 0.00 44 1018.2
20240614045648 62 320 0.0 0.0 0.00 0.00 0.00 44 1017.9
20240614044647 62 325 4.3 0.0 0.00 0.00 0.00 44 1017.8
20240614043646 62 331 0.9 0.0 0.00 0.00 0.00 43 1017.6
20240614042644 62 301 0.0 0.0 0.00 0.00 0.00 46 1017.4
20240614035642 64 315 0.9 0.0 0.00 0.00 0.00 46 1017.3
20240614034641 64 313 0.0 0.0 0.00 0.00 0.00 46 1017.2
20240614033640 64 306 0.0 0.0 0.00 0.00 0.00 45 1017.3
20240614032638 65 326 3.5 0.0 0.00 0.00 0.00 45 1017.1
20240614031637 66 333 0.0 0.0 0.00 0.00 0.00 45 1017.1
20240614030636 66 308 4.3 0.0 0.00 0.00 0.00 45 1017.0
20240614025636 66 313 0.0 0.0 0.00 0.00 0.00 49 1017.0
20240614024634 66 300 6.1 0.0 0.00 0.00 0.00 51 1016.9
20240614022632 67 300 2.6 0.0 0.00 0.00 0.00 51 1016.8
20240614021632 67 302 4.3 0.0 0.00 0.00 0.00 50 1016.6
20240614020630 68 329 7.8 0.0 0.00 0.00 0.00 50 1016.7
20240614015630 68 317 3.5 0.0 0.00 0.00 0.00 50 1016.4
20240614014628 69 301 6.1 0.0 0.00 0.00 0.00 50 1016.1
20240614013628 69 329 0.0 0.0 0.00 0.00 0.00 50 1016.0
20240614012626 70 323 0.0 0.0 0.00 0.00 0.00 50 1015.9
20240614011625 70 297 0.0 0.0 0.00 0.00 0.00 49 1015.8
20240614010624 70 325 0.0 0.0 0.00 0.00 0.00 49 1015.7
20240614005623 71 319 3.5 0.0 0.00 0.00 0.00 47 1015.5
20240614004622 72 318 0.0 0.0 0.00 0.00 0.00 46 1015.5
20240614003621 72 301 0.0 0.0 0.00 0.00 0.00 44 1015.5
20240614002620 73 321 0.0 0.0 0.00 0.00 0.00 44 1015.4
20240614001619 74 316 0.0 0.0 0.00 0.00 0.00 43 1015.3
20240614000618 75 306 0.0 0.0 0.00 0.00 0.00 43 1015.1
20240613235617 75 327 0.0 0.0 0.00 0.00 0.00 42 1015.1
20240613234617 75 317 0.0 0.0 0.00 0.00 0.00 42 1015.1
20240613233615 75 5 0.0 0.0 0.00 0.00 0.00 40 1015.0
20240613232614 75 314 0.0 0.0 0.00 0.00 0.00 39 1015.1
20240613230612 78 293 0.0 0.0 0.00 0.00 0.00 36 1015.0
20240613225611 79 319 0.0 0.0 0.00 0.00 0.00 38 1014.9
20240613223609 80 311 0.0 0.0 0.00 0.00 0.00 36 1015.0
20240613222608 80 312 1.7 0.0 0.00 0.00 0.00 36 1015.3
20240613221607 79 330 0.0 0.0 0.00 0.00 0.00 36 1015.3
20240613220606 79 309 0.0 0.0 0.00 0.00 0.00 37 1015.3
20240613215605 79 331 0.0 0.0 0.00 0.00 0.00 36 1015.4
20240613214604 78 330 0.0 0.0 0.00 0.00 0.00 37 1015.3
20240613212602 77 336 0.9 0.0 0.00 0.00 0.00 36 1015.5
20240613211601 77 14 0.0 0.0 0.00 0.00 0.00 39 1015.6
20240613210600 76 322 0.0 0.0 0.00 0.00 0.00 41 1015.6
20240613205559 76 319 0.0 0.0 0.00 0.00 0.00 41 1015.8
20240613203557 76 324 0.0 0.0 0.00 0.00 0.00 42 1015.9
20240613202556 75 313 4.3 0.0 0.00 0.00 0.00 44 1016.1
20240613201555 74 317 4.3 0.0 0.00 0.00 0.00 45 1016.1
20240613200554 73 312 0.0 0.0 0.00 0.00 0.00 46 1016.2
20240613195553 73 308 5.2 0.0 0.00 0.00 0.00 46 1016.3
20240613192550 71 309 6.1 0.0 0.00 0.00 0.00 48 1016.5
20240613191549 71 312 6.1 0.0 0.00 0.00 0.00 48 1016.5
20240613190548 71 313 5.2 0.0 0.00 0.00 0.00 47 1016.6
20240613184546 70 323 0.0 0.0 0.00 0.00 0.00 49 1016.6
20240613183545 69 310 0.0 0.0 0.00 0.00 0.00 52 1016.7
20240613181543 68 295 0.0 0.0 0.00 0.00 0.00 54 1016.8
20240613180542 67 342 1.7 0.0 0.00 0.00 0.00 55 1016.9
20240613175541 66 360 0.0 0.0 0.00 0.00 0.00 58 1016.9
20240613174540 63 315 0.0 0.0 0.00 0.00 0.00 60 1016.9
20240613173539 61 304 0.0 0.0 0.00 0.00 0.00 64 1017.0
20240613172538 60 340 0.0 0.0 0.00 0.00 0.00 66 1017.1
20240613171537 59 320 0.0 0.0 0.00 0.00 0.00 65 1017.2
20240613170536 59 323 0.9 0.0 0.00 0.00 0.00 68 1017.1
20240613165535 58 331 0.0 0.0 0.00 0.00 0.00 69 1017.1
20240613164534 58 325 0.0 0.0 0.00 0.00 0.00 70 1017.2
20240613163533 57 313 0.0 0.0 0.00 0.00 0.00 70 1017.3
20240613162532 57 321 0.0 0.0 0.00 0.00 0.00 70 1017.4
20240613161531 56 327 0.0 0.0 0.00 0.00 0.00 71 1017.5
20240613160529 56 325 1.7 0.0 0.00 0.00 0.00 71 1017.5
20240613155528 56 312 0.0 0.0 0.00 0.00 0.00 73 1017.5
20240613154528 56 325 0.0 0.0 0.00 0.00 0.00 73 1017.4
20240613152525 55 327 2.6 0.0 0.00 0.00 0.00 74 1017.5
20240613151525 55 311 2.6 0.0 0.00 0.00 0.00 74 1017.5
20240613150524 54 302 0.0 0.0 0.00 0.00 0.00 75 1017.5
20240613144522 53 321 0.0 0.0 0.00 0.00 0.00 77 1017.8
20240613142520 52 304 0.0 0.0 0.00 0.00 0.00 80 1017.6
20240613141518 52 309 0.0 0.0 0.00 0.00 0.00 80 1017.4
20240613135516 51 309 0.0 0.0 0.00 0.00 0.00 81 1017.4
20240613134516 51 310 0.0 0.0 0.00 0.00 0.00 82 1017.4
20240613133514 50 310 0.0 0.0 0.00 0.00 0.00 82 1017.4
20240613132514 50 310 0.0 0.0 0.00 0.00 0.00 82 1017.4
20240613131512 50 310 0.0 0.0 0.00 0.00 0.00 82 1017.3
20240613130511 50 310 0.0 0.0 0.00 0.00 0.00 81 1017.3
20240613125510 51 310 0.0 0.0 0.00 0.00 0.00 80 1017.3
20240613124509 51 310 0.0 0.0 0.00 0.00 0.00 80 1017.3
20240613123508 51 310 0.0 0.0 0.00 0.00 0.00 79 1017.3
20240613122507 52 310 0.0 0.0 0.00 0.00 0.00 78 1017.3
20240613120505 52 310 0.0 0.0 0.00 0.00 0.00 77 1017.3
20240613115504 52 310 0.0 0.0 0.00 0.00 0.00 77 1017.2
20240613114503 52 310 0.0 0.0 0.00 0.00 0.00 77 1017.2